Location: Schommer Observatory
(40.5200°N, 74.4500°W)
Time: 01:58:05
(UTC-04:00)

Mayak - Visible Passes

Search period start: 17 August 2017 00:00
Search period end: 27 August 2017 00:00
Orbit: 585 x 607 km, 97.6° (Epoch: 16 August)

Date Brightness Start Highest point End Pass type
(mag) Time Alt. Az. Time Alt. Az. Time Alt. Az.
17 Aug 1.7 00:32:13 10° NNE 00:32:42 13° NNE 00:32:42 13° NNE visible
18 Aug 1.7 00:41:57 10° NNE 00:42:30 14° NNE 00:42:30 14° NNE visible
19 Aug 1.7 00:51:44 10° N 00:52:18 14° N 00:52:18 14° N visible
20 Aug 1.8 01:01:33 10° N 01:02:05 13° N 01:02:05 13° N visible
21 Aug 1.8 01:11:24 10° N 01:11:53 13° N 01:11:53 13° N visible
22 Aug 1.9 01:21:19 10° N 01:21:40 12° N 01:21:40 12° N visible
23 Aug 1.9 01:31:16 10° N 01:31:27 11° NNW 01:31:27 11° NNW visible
